TimeEST,TemperatureF,Dew PointF,Humidity,Sea Level PressureIn,VisibilityMPH,Wind Direction,Wind SpeedMPH,Gust SpeedMPH,PrecipitationIn,Events,Conditions,WindDirDegrees,DateUTC
12:21 AM,28.4,28.4,100,30.40,5.0,Calm,Calm,-,N/A,,Clear,0,2013-01-09 05:21:00
12:42 AM,28.4,28.4,100,30.39,7.0,Calm,Calm,-,N/A,,Clear,0,2013-01-09 05:42:00
1:03 AM,28.4,28.4,100,30.40,5.0,Calm,Calm,-,N/A,,Clear,0,2013-01-09 06:03:00
1:24 AM,26.6,26.6,100,30.39,5.0,Calm,Calm,-,N/A,,Clear,0,2013-01-09 06:24:00
1:46 AM,28.4,28.4,100,30.38,5.0,Calm,Calm,-,N/A,,Clear,0,2013-01-09 06:46:00
2:28 AM,26.6,26.6,100,30.37,5.0,Calm,Calm,-,N/A,,Clear,0,2013-01-09 07:28:00
2:50 AM,26.6,26.6,100,30.38,7.0,Calm,Calm,-,N/A,,Clear,0,2013-01-09 07:50:00
3:11 AM,26.6,26.6,100,30.38,5.0,Calm,Calm,-,N/A,,Clear,0,2013-01-09 08:11:00
3:32 AM,26.6,26.6,100,30.38,4.0,Calm,Calm,-,N/A,,Clear,0,2013-01-09 08:32:00
3:54 AM,26.6,26.6,100,30.39,4.0,Calm,Calm,-,N/A,,Clear,0,2013-01-09 08:54:00
4:15 AM,26.6,26.6,100,30.38,4.0,Calm,Calm,-,N/A,,Clear,0,2013-01-09 09:15:00
4:36 AM,26.6,26.6,100,30.37,5.0,Calm,Calm,-,N/A,,Clear,0,2013-01-09 09:36:00
4:58 AM,26.6,26.6,100,30.37,4.0,Calm,Calm,-,N/A,,Clear,0,2013-01-09 09:58:00
5:19 AM,26.6,26.6,100,30.38,4.0,Calm,Calm,-,N/A,,Clear,0,2013-01-09 10:19:00
5:40 AM,26.6,26.6,100,30.37,4.0,Calm,Calm,-,N/A,,Clear,0,2013-01-09 10:40:00
6:02 AM,26.6,26.6,100,30.37,5.0,Calm,Calm,-,N/A,,Clear,0,2013-01-09 11:02:00
6:23 AM,26.6,26.6,100,30.37,5.0,Calm,Calm,-,N/A,,Clear,0,2013-01-09 11:23:00
6:44 AM,26.6,26.6,100,30.37,5.0,Calm,Calm,-,N/A,,Clear,0,2013-01-09 11:44:00
7:05 AM,26.6,26.6,100,30.37,4.0,Calm,Calm,-,N/A,,Clear,0,2013-01-09 12:05:00
7:27 AM,26.6,26.6,100,30.38,4.0,Calm,Calm,-,N/A,,Clear,0,2013-01-09 12:27:00
7:48 AM,26.6,26.6,100,30.37,5.0,Calm,Calm,-,N/A,,Clear,0,2013-01-09 12:48:00
8:09 AM,26.6,26.6,100,30.39,3.0,Calm,Calm,-,N/A,,Unknown,0,2013-01-09 13:09:00
8:30 AM,28.4,28.4,100,30.38,4.0,Calm,Calm,-,N/A,,Clear,0,2013-01-09 13:30:00
8:52 AM,28.4,28.4,100,30.39,4.0,Calm,Calm,-,N/A,,Clear,0,2013-01-09 13:52:00
9:13 AM,28.4,28.4,100,30.39,4.0,Calm,Calm,-,N/A,,Clear,0,2013-01-09 14:13:00
9:34 AM,30.2,30.2,100,30.39,4.0,Calm,Calm,-,N/A,,Scattered Clouds,0,2013-01-09 14:34:00
9:55 AM,30.2,30.2,100,30.38,4.0,Calm,Calm,-,N/A,,Scattered Clouds,0,2013-01-09 14:55:00
10:17 AM,30.2,30.2,100,30.38,4.0,Calm,Calm,-,N/A,,Mostly Cloudy,0,2013-01-09 15:17:00
10:38 AM,32.0,32.0,100,30.37,4.0,Calm,Calm,-,N/A,,Overcast,0,2013-01-09 15:38:00
10:59 AM,32.0,32.0,100,30.37,4.0,Calm,Calm,-,N/A,,Overcast,0,2013-01-09 15:59:00
11:20 AM,32.0,32.0,100,30.37,5.0,Calm,Calm,-,N/A,,Overcast,0,2013-01-09 16:20:00
11:42 AM,33.8,32.0,93,30.36,5.0,Calm,Calm,-,N/A,,Overcast,0,2013-01-09 16:42:00
12:03 PM,35.6,32.0,87,30.34,5.0,Calm,Calm,-,N/A,,Scattered Clouds,0,2013-01-09 17:03:00
12:24 PM,35.6,32.0,87,30.33,5.0,Calm,Calm,-,N/A,,Mostly Cloudy,0,2013-01-09 17:24:00
12:45 PM,35.6,32.0,87,30.30,5.0,SW,3.5,-,N/A,,Overcast,220,2013-01-09 17:45:00
1:07 PM,35.6,32.0,87,30.31,5.0,Calm,Calm,-,N/A,,Overcast,0,2013-01-09 18:07:00
1:28 PM,35.6,33.8,93,30.26,5.0,South,6.9,-,N/A,,Mostly Cloudy,190,2013-01-09 18:28:00
1:49 PM,41.0,33.8,76,30.26,5.0,Calm,Calm,-,N/A,,Scattered Clouds,0,2013-01-09 18:49:00
2:10 PM,41.0,33.8,76,30.27,5.0,Calm,Calm,-,N/A,,Mostly Cloudy,0,2013-01-09 19:10:00
2:32 PM,41.0,33.8,76,30.28,7.0,NNW,5.8,-,N/A,,Overcast,340,2013-01-09 19:32:00
2:53 PM,42.8,35.6,76,30.28,7.0,Calm,Calm,-,N/A,,Overcast,0,2013-01-09 19:53:00
3:14 PM,41.0,33.8,76,30.28,7.0,ENE,3.5,-,N/A,,Overcast,60,2013-01-09 20:14:00
3:36 PM,42.8,35.6,76,30.28,7.0,NNW,4.6,-,N/A,,Overcast,340,2013-01-09 20:36:00
3:57 PM,42.8,35.6,76,30.29,7.0,Calm,Calm,-,N/A,,Overcast,0,2013-01-09 20:57:00
4:18 PM,46.4,41.0,81,30.30,10.0,SW,9.2,-,N/A,,Mostly Cloudy,220,2013-01-09 21:18:00
4:39 PM,51.8,42.8,71,30.30,10.0,NW,9.2,19.6,N/A,,Mostly Cloudy,310,2013-01-09 21:39:00
5:01 PM,50.0,41.0,71,30.30,10.0,WNW,3.5,17.3,N/A,,Scattered Clouds,300,2013-01-09 22:01:00
5:22 PM,50.0,41.0,71,30.31,10.0,WSW,3.5,-,N/A,,Clear,240,2013-01-09 22:22:00
5:43 PM,50.0,39.2,66,30.32,10.0,West,4.6,-,N/A,,Clear,270,2013-01-09 22:43:00
6:04 PM,50.0,37.4,62,30.33,10.0,Calm,Calm,-,N/A,,Clear,0,2013-01-09 23:04:00
6:26 PM,48.2,37.4,66,30.35,10.0,WNW,5.8,-,N/A,,Clear,300,2013-01-09 23:26:00
6:47 PM,48.2,35.6,62,30.35,10.0,SSW,4.6,-,N/A,,Clear,210,2013-01-09 23:47:00
7:08 PM,50.0,35.6,58,30.36,10.0,SSW,5.8,23.0,N/A,,Clear,200,2013-01-10 00:08:00
8:12 PM,46.4,33.8,62,30.37,10.0,WSW,6.9,-,N/A,,Clear,250,2013-01-10 01:12:00
8:33 PM,46.4,33.8,62,30.39,10.0,West,6.9,23.0,N/A,,Clear,270,2013-01-10 01:33:00
8:54 PM,48.2,33.8,58,30.39,10.0,WNW,12.7,25.3,N/A,,Clear,290,2013-01-10 01:54:00
9:16 PM,48.2,33.8,58,30.39,10.0,WNW,11.5,17.3,N/A,,Clear,300,2013-01-10 02:16:00
9:37 PM,48.2,33.8,58,30.40,10.0,West,17.3,27.6,N/A,,Clear,270,2013-01-10 02:37:00
9:58 PM,48.2,33.8,58,30.40,10.0,West,12.7,20.7,N/A,,Clear,270,2013-01-10 02:58:00
10:19 PM,48.2,32.0,54,30.40,10.0,West,13.8,34.5,N/A,,Clear,270,2013-01-10 03:19:00
10:41 PM,46.4,32.0,57,30.42,10.0,West,15.0,26.5,N/A,,Clear,260,2013-01-10 03:41:00
11:02 PM,46.4,30.2,53,30.44,10.0,WNW,6.9,20.7,N/A,,Clear,290,2013-01-10 04:02:00
11:23 PM,46.4,30.2,53,30.45,10.0,South,6.9,-,N/A,,Clear,180,2013-01-10 04:23:00
11:45 PM,44.6,30.2,57,30.46,10.0,SW,9.2,-,N/A,,Clear,230,2013-01-10 04:45:00